Home > Time Zones > World Clock > Weather > Norway > Odda > Past weeks

Flag for Norway Weather past 2 weeks in Odda, Norway

Now
78 °F

Partly sunny.


Feels Like: 78 °F
Forecast: 67 / 76 °F
Wind: N/A

Location: Sauda

Current Time: Jul 2, 2015 at 9:00:50 PM

Latest Report: Jul 2, 2015 at 8:00 PM


Visibility: 19 mi

Pressure: 30.17 "Hg

Humidity: 30%

Dew point: 44 °F

Location of OddaLocation

Historic Weather in Odda — Graph

°F

Odda temperature yesterday

Maximum temperature yesterday: 73 °F (at 4:00 PM)
Minimum temperature yesterday: 56 °F (at 4:00 AM)
Average temperature yesterday: 64 °F

Past Weeks' High & Low Weather Summary

 TemperatureHumidityPressure
High84 °F (Jul 2, 2:00 PM)91% (Jun 17, 9:00 PM)30.27 "Hg (Jun 17, 9:00 PM)
Low44 °F (Jun 20, 5:00 AM)21% (Jul 2, 1:00 PM)29.70 "Hg (Jun 22, 8:00 PM)
Average56 °F67%29.95 "Hg
* Reported Jun 17 8:00 PM — Jul 2 8:00 PM, Odda, Weather by CustomWeather, © 2015

Note: Actual official high and low records may vary slightly from our data, if they occured in-between our weather recording intervals... More about our weather records

Advertising

Odda weather history for previous 24 hours

 ConditionsComfort  
Time TempWeatherWind HumidityBarometerVisibility
8:00 PM
Thu, Jul 2
78 °FPartly sunny.N/A30%30.17 "Hg19 mi
7:00 PM82 °FPleasantly warm.N/A26%30.16 "HgN/A
6:00 PM83 °FPleasantly warm.N/A24%30.16 "HgN/A
5:00 PM81 °FPleasantly warm.N/A27%30.16 "HgN/A
4:00 PM82 °FPleasantly warm.N/A23%30.16 "HgN/A
3:00 PM82 °FPleasantly warm.N/A21%30.15 "HgN/A
2:00 PM84 °FScattered clouds.N/A21%30.15 "Hg47 mi
1:00 PM82 °FPleasantly warm.N/A21%30.17 "HgN/A
12:00 PM76 °FMild.N/A28%30.18 "HgN/A
11:00 AM79 °FPleasantly warm.N/A26%30.19 "HgN/A
10:00 AM64 °FMild.N/A66%30.20 "HgN/A
9:00 AM61 °FCool.N/A69%30.21 "HgN/A
8:00 AM61 °FCool.N/A75%30.22 "HgN/A
7:00 AM59 °FCool.N/A74%30.22 "HgN/A
6:00 AM56 °FCool.N/A80%30.22 "HgN/A
5:00 AM55 °FSunny.N/A82%30.22 "Hg47 mi
4:00 AM55 °FCool.N/A81%30.21 "HgN/A
3:00 AM56 °FCool.N/A78%30.22 "HgN/A
2:00 AM57 °FCool.N/A78%30.23 "HgN/A
1:00 AM58 °FCool.N/A75%30.23 "HgN/A
12:00 AM60 °FCool.N/A71%30.24 "HgN/A
11:00 PM
Wed, Jul 1
62 °FMild.N/A68%30.22 "HgN/A
10:00 PM66 °FMild.N/A61%30.21 "HgN/A
9:00 PM68 °FMild.N/A54%30.19 "HgN/A
Weather by CustomWeather, © 2015

See weather overviewHow to use our weather pages